Вернуться в каталог

VENERA 2

АктивенНаукаVLEO
NORAD 1730·PAYLOAD·🇷🇺 Russia

Запущен Nov 12, 1965 с Baikonur Cosmodrome

Loading…

Ближайшие Пролёты (ближайшие 24 часа)

TLE

УстаревшееSource: Space-Track

Эпоха: Nov 12, 1965, 07:34 UTC

1 01730U 65091  A 65316.31593551  .00087950 +19323-4 +00000-0 0  9996
2 01730 051.8844 133.0512 0082997 102.4729 258.4645 16.05105958000024

Отслеживайте VENERA 2 в реальном времени с AllMySat

Download on the App Store